Flag for Vietnam Weather past 2 weeks in Da Nang, Vietnam

Now
90 °F

Passing clouds.


Feels Like: 100 °F
Forecast: 78 / 93 °F
Wind: 7 mph from Southeast

Location: Da Nang Airport

Current Time: Jun 3, 2015 at 7:10:29 PM

Latest Report: Jun 3, 2015 at 6:00 PM


Visibility: N/A

Pressure: 29.74 "Hg

Humidity: 63%

Dew point: 75 °F

Location of Da NangLocation

Historic Weather in Da Nang — Graph

°F

Da Nang temperature yesterday

Maximum temperature yesterday: 95 °F (at 3:00 PM)
Minimum temperature yesterday: 79 °F (at 4:30 AM)
Average temperature yesterday: 87 °F

Past Weeks' High & Low Weather Summary

 TemperatureHumidityPressure
High102 °F (May 29, 11:30 AM)94% (May 19, 7:30 PM)29.83 "Hg (May 19, 7:30 PM)
Low77 °F (May 20, 2:00 AM)40% (May 29, 11:30 AM)29.62 "Hg (May 23, 3:30 PM)
Average89 °F68%29.72 "Hg
* Reported May 19 6:00 PM — Jun 3 6:00 PM, Da Nang, Weather by CustomWeather, © 2015

Note: Actual official high and low records may vary slightly from our data, if they occured in-between our weather recording intervals... More about our weather records

Advertising

Da Nang weather history for previous 24 hours

 ConditionsComfort  
Time TempWeatherWind HumidityBarometerVisibility
6:00 PM
Wed, Jun 3
90 °FPassing clouds.7 mph63%29.74 "HgN/A
5:30 PM90 °FPassing clouds.7 mph63%29.74 "HgN/A
5:00 PM91 °FPassing clouds.8 mph59%29.71 "HgN/A
4:30 PM91 °FPassing clouds.8 mph59%29.74 "HgN/A
4:00 PM91 °FPassing clouds.10 mph63%29.71 "HgN/A
3:30 PM93 °FPassing clouds.8 mph59%29.74 "HgN/A
3:00 PM93 °FPassing clouds.9 mph56%29.74 "HgN/A
2:30 PM93 °FPassing clouds.8 mph56%29.74 "HgN/A
2:00 PM93 °FScattered clouds.8 mph56%29.74 "HgN/A
1:30 PM91 °FScattered clouds.12 mph63%29.77 "HgN/A
1:00 PM93 °FScattered clouds.10 mph56%29.77 "HgN/A
12:30 PM93 °FScattered clouds.12 mph59%29.77 "HgN/A
12:00 PM97 °FScattered clouds.8 mph47%29.80 "HgN/A
11:30 AM99 °FScattered clouds.8 mph42%29.80 "HgN/A
11:00 AM99 °FScattered clouds.6 mph42%29.80 "HgN/A
10:30 AM97 °FScattered clouds.7 mph44%29.83 "HgN/A
10:00 AM97 °FScattered clouds.5 mph44%29.83 "HgN/A
9:30 AM95 °FScattered clouds.3 mph50%29.83 "HgN/A
9:00 AM93 °FScattered clouds.5 mph53%29.83 "HgN/A
8:30 AM91 °FScattered clouds.5 mph52%29.83 "HgN/A
8:00 AM90 °FScattered clouds.3 mph59%29.83 "HgN/A
7:30 AM88 °FScattered clouds.2 mph62%29.80 "HgN/A
7:00 AM84 °FScattered clouds.3 mph70%29.80 "HgN/A
6:30 AM82 °FScattered clouds.2 mph74%29.80 "HgN/A
6:00 AM81 °FScattered clouds.1 mph79%29.80 "HgN/A
5:30 AM79 °FScattered clouds.5 mph79%29.77 "HgN/A
5:00 AM79 °FPassing clouds.5 mph79%29.77 "HgN/A
4:30 AM81 °FPassing clouds.1 mph74%29.74 "HgN/A
4:00 AM81 °FPassing clouds.2 mph79%29.74 "HgN/A
3:30 AM81 °FPassing clouds.3 mph79%29.74 "HgN/A
3:00 AM81 °FPassing clouds.2 mph79%29.74 "HgN/A
2:30 AM82 °FPassing clouds.3 mph74%29.74 "HgN/A
2:00 AM81 °FPassing clouds.2 mph84%29.74 "HgN/A
1:30 AM81 °FPassing clouds.3 mph84%29.74 "HgN/A
1:00 AM81 °FPassing clouds.2 mph89%29.77 "HgN/A
12:30 AM82 °FPassing clouds.2 mph84%29.77 "HgN/A
12:00 AM82 °FPassing clouds.3 mph79%29.77 "HgN/A
11:30 PM
Tue, Jun 2
84 °FPassing clouds.1 mph74%29.77 "HgN/A
11:00 PM84 °FPassing clouds.2 mph74%29.80 "HgN/A
10:30 PM84 °FPassing clouds.2 mph74%29.80 "HgN/A
10:00 PM84 °FPassing clouds.3 mph74%29.80 "HgN/A
9:30 PM86 °FPassing clouds.1 mph70%29.80 "HgN/A
9:00 PM86 °FPassing clouds.No wind70%29.77 "HgN/A
8:30 PM86 °FPassing clouds.2 mph66%29.77 "HgN/A
8:00 PM86 °FPassing clouds.6 mph66%29.77 "HgN/A
7:30 PM88 °FPassing clouds.5 mph62%29.74 "HgN/A
7:00 PM88 °FPassing clouds.3 mph59%29.71 "HgN/A
Weather by CustomWeather, © 2015

See weather overviewHow to use our weather pages